Location: ???????
(54.9567°N, 38.2836°E)
Time: 20:38:02
(UTC+00:00)

Cosmos 1484 Rocket - Pass Details

Date: 14 April 2024
Orbit: 480 x 525 km, 97.6° (Epoch: 18 May)

Event Time Altitude Azimuth Distance (km) Brightness Sun altitude
Rises 01:25:54 0° 21° (NNE) 2,591 7.2 -8.6°
Reaches altitude 10° 01:28:11 10° 32° (NNE) 1,695 6.4 -8.4°
Maximum altitude 01:31:27 31° 96° (E) 878 4.5 -7.9°
Drops below altitude 10° 01:34:46 10° 161° (SSE) 1,698 5.2 -7.5°
Sets 01:36:53 0° 171° (S) 2,535 6.0 -7.3°
